This is the latest recevied weather packets stored in our database for station/object NC4M. If no packets are shown the sender has not sent any weather packets the latest 10 day(s).
| Time | Temp. | Humidity | Pressure | Rain* | Wind** | Luminosity | Snow |
|---|---|---|---|---|---|---|---|
| 1777401201 | 16.11° C | 71% | 1015.4 hPa | 0 mm | - | 6 W/m² | - |
| 1777400897 | 16.11° C | 73% | 1015 hPa | 0 mm | - | 8 W/m² | - |
| 1777400593 | 16.11° C | 72% | 1015.4 hPa | 0 mm | - | 11 W/m² | - |
| 1777400291 | 16.11° C | 71% | 1016 hPa | 0 mm | - | 11 W/m² | - |
| 1777399986 | 16.11° C | 69% | 1016.2 hPa | 0 mm | - | 12 W/m² | - |
| 1777399683 | 16.11° C | 71% | 1016 hPa | 0 mm | - | 21 W/m² | - |
| 1777399380 | 16.67° C | 70% | 1016.3 hPa | 0 mm | - | 16 W/m² | - |
| 1777399078 | 16.67° C | 67% | 1015.5 hPa | 0 mm | - | 20 W/m² | - |
| 1777398775 | 16.67° C | 67% | 1015.4 hPa | 0 mm | - | 35 W/m² | - |
| 1777398472 | 17.22° C | 66% | 1015.2 hPa | 0 mm | - | 56 W/m² | - |
| 1777398169 | 17.78° C | 63% | 1014.8 hPa | 0 mm | - | 63 W/m² | - |
| 1777397865 | 17.78° C | 62% | 1015.7 hPa | 0 mm | - | 92 W/m² | - |
| 1777397560 | 18.89° C | 59% | 1015.6 hPa | 0 mm | - | 145 W/m² | - |
| 1777397257 | 19.44° C | 58% | 1016.2 hPa | 0 mm | - | 296 W/m² | - |
| 1777396954 | 19.44° C | 64% | 1016 hPa | 0 mm | - | 881 W/m² | - |
| 1777396651 | 20° C | 55% | 1016.1 hPa | 0 mm | - | 945 W/m² | - |
| 1777396348 | 18.89° C | 62% | 1015.7 hPa | 0 mm | - | 885 W/m² | - |
| 1777396045 | 18.33° C | 59% | 1015.5 hPa | 0 mm | - | 895 W/m² | - |
| 1777395739 | 18.89° C | 58% | 1015.9 hPa | 0 mm | - | 513 W/m² | - |
| 1777395435 | 18.89° C | 60% | 1016.3 hPa | 0 mm | - | 1000 W/m² | - |
| 1777395133 | 18.89° C | 61% | 1016.3 hPa | 0 mm | - | 291 W/m² | - |
| 1777394830 | 17.78° C | 61% | 1016 hPa | 0 mm | - | 752 W/m² | - |
| 1777394526 | 17.78° C | 60% | 1016.1 hPa | 0 mm | - | 835 W/m² | - |
| 1777394223 | 17.78° C | 60% | 1016.2 hPa | 0 mm | - | 836 W/m² | - |
| 1777393918 | 17.78° C | 62% | 1016.3 hPa | 0 mm | - | 816 W/m² | - |
* Rain latest hour (hover to see other rain measurements)
** Current wind speed in m/s (hover to see current wind gust speed)